Torna al catalogo

USA 40 R/B DEB

AttivoHEO
NORAD 23360·DEBRIS·🇺🇸 United States

Lanciato Aug 8, 1989 da Cape Canaveral Space Force Station

Loading…

Prossimi Passaggi (prossime 24 ore)

TLE

AggiornatoSource: Space-Track

Epoca: Sep 12, 2026, 13:06 UTC

1 23360U 89061AG  26255.54624402  .00003236  00000-0  28584-2 0  9998
2 23360  56.9874 318.1880 3043846 210.3154 128.0373  8.77122610 78236

Traccia USA 40 R/B DEB in tempo reale con AllMySat

Download on the App Store